"Pseudo-MPEC" for ZTF02rs

Created 2019 Feb 19 10:18:10 UT using Find_Orb

Click here for an explanation of pseudo-MPECs

 
 Astrometry: 
     ZTF02rs  C2019 02 09.33902009 51 05.07 +22 17 26.1    ~29L3 17.62RUNEOCPI41
     ZTF02rs  C2019 02 09.33936709 51 10.94 +22 16 47.9    ~29L3 17.62RUNEOCPI41
     ZTF02rs  C2019 02 09.35098709 54 25.50 +21 55 21.3    ~29L3 17.53RUNEOCPI41
     ZTF02rs  C2019 02 09.35133409 54 31.18 +21 54 43.0    ~29L3 17.53RUNEOCPI41

Station data:
(I41) Palomar Mountain--ZTF  (N33.357340 W116.859780)  US/California. 1.2-m
   f/2.44 Oschin Schmidt + CCD.

Orbital elements:  ZTF02rs
   Perigee 2019 Feb 8.388576 +/- 34.2 TT =  9:19:33 (JD 2458522.888576)
Epoch 2019 Feb  9.0 TT = JDT 2458523.5                        AutoNEOCP
M  63.02222278 +/- 26               (J2000 equator)
n 103.07452362 +/- 0.422            Peri.    5.55942 +/- 60
a 97237.9845 +/- 5.74e+7            Node    14.30938 +/- 80
e   0.2424235 +/- 0.24              Incl.   30.17639 +/- 1.5
P5029.28m/3.493d           H 33.4   G  0.15   U 12.2  SR
q 73665.2074 +/- 1.64e+7    Q 120810.761 +/- 5.59e+9
From 4 observations 2019 Feb. 9 (17.7 min); mean residual 0".34
Residuals in arcseconds: 
190209 I41  .13-  .10+    190209 I41  .61+  .26-    
190209 I41  .12+  .10-    190209 I41  .60-  .26+    

Ephemerides (geocentric):
Date (UTC) HH   RA              Dec         delta   r     elong  mag " sig PA
---- -- -- --  -------------   -----------  ------ ------ -----  --- ---- ---
2019 02 19 10  06 50 44.335   +30 10 50.44   88935 .98885 130.4 19.0 105d 178
2019 02 19 11  07 13 19.373   +30 07 31.19   90752 .98890 135.2 19.0 105d 178
2019 02 19 12  07 34 56.706   +29 50 43.17   92575 .98895 139.7 18.9 105d 178
2019 02 19 13  07 55 34.625   +29 22 11.83   94391 .98900 144.0 18.8 102d   0
2019 02 19 14  08 15 13.014   +28 43 36.92   96190 .98904 148.1 18.7  94d   2
2019 02 19 15  08 33 53.050   +27 56 30.10   97962 .98908 152.0 18.7  93d   2
2019 02 19 16  08 51 36.900   +27 02 13.70   99700 .98912 155.8 18.6  87d   4
2019 02 19 17  09 08 27.419   +26 02 00.27  101396 .98916 159.3 18.5  85d   5
2019 02 19 18  09 24 27.906   +24 56 52.82  103043 .98919 162.5 18.4  77d   8
2019 02 19 19  09 39 41.893   +23 47 45.39  104637 .98922 165.5 18.4  74d   9
2019 02 19 20  09 54 12.989   +22 35 23.88  106173 .98924 168.0 18.3  71d  11
2019 02 19 21  10 08 04.773   +21 20 26.93  107647 .98927 169.9 18.3  71d  11
2019 02 19 22  10 21 20.712   +20 03 26.86  109054 .98929 170.8 18.3  68d  12
2019 02 19 23  10 34 04.116   +18 44 50.53  110393 .98930 170.7 18.3  64d  14
2019 02 20 00  10 46 18.114   +17 25 00.15  111661 .98932 169.5 18.4  64d  14
2019 02 20 01  10 58 05.638   +16 04 13.99  112855 .98933 167.7 18.5  65d  14
2019 02 20 02  11 09 29.425   +14 42 47.01  113973 .98934 165.5 18.6  65d  14
2019 02 20 03  11 20 32.027   +13 20 51.35  115013 .98935 163.1 18.7  66d  14
2019 02 20 04  11 31 15.816   +11 58 36.89  115975 .98935 160.6 18.8  66d  14
2019 02 20 05  11 41 43.003   +10 36 11.56  116857 .98935 158.0 18.9  66d  14
2019 02 20 06  11 51 55.652   +09 13 41.70  117658 .98935 155.4 18.9  66d  13
2019 02 20 07  12 01 55.696   +07 51 12.39  118376 .98935 152.8 19.0  67d  13
2019 02 20 08  12 11 44.951   +06 28 47.61  119012 .98935 150.2 19.1  67d  13
2019 02 20 09  12 21 25.138   +05 06 30.48  119564 .98934 147.6 19.2  67d  13
2019 02 20 10  12 30 57.889   +03 44 23.50  120032 .98933 145.1 19.3  67d  13
2019 02 20 11  12 40 24.768   +02 22 28.59  120415 .98932 142.5 19.4  67d  13
2019 02 20 12  12 49 47.283   +01 00 47.31  120713 .98931 139.9 19.4  67d  13
2019 02 20 13  12 59 06.898   -00 20 39.06  120925 .98930 137.3 19.5  67d  13
2019 02 20 14  13 08 25.048   -01 41 49.39  121052 .98928 134.7 19.6  67d  13
2019 02 20 15  13 17 43.149   -03 02 42.62  121093 .98926 132.1 19.7  64d  14
2019 02 20 16  13 27 02.610   -04 23 17.62  121048 .98924 129.6 19.7  64d  14
2019 02 20 17  13 36 24.849   -05 43 33.16  120917 .98922 127.0 19.8  64d  14
2019 02 20 18  13 45 51.300   -07 03 27.73  120700 .98920 124.4 19.9  64d  14
2019 02 20 19  13 55 23.423   -08 22 59.52  120397 .98918 121.7 20.0  64d  14
2019 02 20 20  14 05 02.724   -09 42 06.21  120008 .98915 119.1 20.0  63d  14
2019 02 20 21  14 14 50.759   -11 00 44.95  119533 .98913 116.5 20.1  63d  14
2019 02 20 22  14 24 49.148   -12 18 52.14  118974 .98910 113.8 20.2  63d  14
2019 02 20 23  14 34 59.589   -13 36 23.30  118329 .98908 111.1 20.2  62d  14
2019 02 21 00  14 45 23.867   -14 53 12.91  117601 .98905 108.3 20.3  62d  14
2019 02 21 01  14 56 03.865   -16 09 14.17  116789 .98902 105.5 20.4  62d  14
2019 02 21 02  15 07 01.579   -17 24 18.79  115894 .98899 102.7 20.5  61d  14
2019 02 21 03  15 18 19.121   -18 38 16.67  114917 .98896  99.8 20.6  61d  14
2019 02 21 04  15 29 58.732   -19 50 55.66  113860 .98893  96.9 20.6  61d  15
2019 02 21 05  15 42 02.780   -21 02 01.10  112724 .98890  93.9 20.7  59d  13
2019 02 21 06  15 54 33.765   -22 11 15.47  111511 .98887  90.9 20.8  59d  13
2019 02 21 07  16 07 34.309   -23 18 17.89  110222 .98884  87.8 20.9  58d  14
2019 02 21 08  16 21 07.138   -24 22 43.64  108859 .98881  84.6 21.1  58d  14
2019 02 21 09  16 35 15.054   -25 24 03.50  107427 .98877  81.3 21.2  57d  14